Location: Unspecified
(48.5670°N, 0.0000°E)
Time: 13:20:57
(UTC+00:00)

Transit 4A - Visible Passes

Search period start: 22 October 2020 00:00
Search period end: 01 November 2020 00:00
Orbit: 862 x 982 km, 66.8° (Epoch: 22 October)

Date Brightness Start Highest point End Pass type
(mag) Time Alt. Az. Time Alt. Az. Time Alt. Az.
22 Oct 9.1 17:55:00 10° WSW 18:00:56 42° NW 18:07:01 10° NNE visible
22 Oct 10.2 19:44:54 10° WNW 19:49:07 18° NNW 19:53:22 10° NNE visible
22 Oct 10.4 21:34:27 10° NNW 21:36:52 15° N 21:36:52 15° N visible
23 Oct 9.4 18:04:52 10° WSW 18:10:32 34° NW 18:16:20 10° NNE visible
23 Oct 10.2 19:55:09 10° NW 19:59:01 16° NNW 20:02:19 11° NNE visible
23 Oct 10.4 21:44:01 10° NNW 21:45:48 15° N 21:45:48 15° N visible
24 Oct 9.7 18:14:54 10° W 18:20:12 27° NNW 18:25:37 10° NNE visible
24 Oct 10.2 20:05:20 10° NW 20:08:57 15° N 20:11:16 13° NNE visible
24 Oct 10.5 21:53:28 10° NNW 21:54:45 14° NNW 21:54:45 14° NNW visible
25 Oct 9.9 18:25:03 10° WNW 18:29:58 23° NNW 18:34:57 10° NNE visible
25 Oct 10.1 20:15:22 10° NNW 20:18:53 15° N 20:20:12 14° NNE visible
25 Oct 10.6 22:02:50 10° NNW 22:03:42 13° NNW 22:03:42 13° NNW visible
26 Oct 10.0 18:35:16 10° WNW 18:39:46 20° NNW 18:44:19 10° NNE visible
26 Oct 10.1 20:25:12 10° NNW 20:28:50 15° N 20:29:09 15° N visible
26 Oct 10.7 22:12:09 10° NNW 22:12:39 12° NNW 22:12:39 12° NNW visible
27 Oct 10.1 18:45:32 10° NW 18:49:38 17° NNW 18:53:45 10° NNE visible
27 Oct 10.1 20:34:52 10° NNW 20:38:06 16° N 20:38:06 16° N visible
27 Oct 10.8 22:21:27 10° NNW 22:21:36 11° NNW 22:21:36 11° NNW visible
28 Oct 10.1 18:55:46 10° NW 18:59:32 16° N 19:03:19 10° NNE visible
28 Oct 10.1 20:44:23 10° NNW 20:47:04 17° N 20:47:04 17° N visible
29 Oct 9.7 17:15:28 10° W 17:20:40 26° NNW 17:25:55 10° NNE visible
29 Oct 10.1 19:05:54 10° NW 19:09:28 15° N 19:12:32 11° NNE visible
29 Oct 10.2 20:53:48 10° NNW 20:56:02 17° N 20:56:02 17° N visible
30 Oct 9.8 17:25:39 10° WNW 17:30:26 21° NNW 17:35:16 10° NNE visible
30 Oct 10.0 19:15:52 10° NNW 19:19:25 15° N 19:21:30 13° NNE visible
30 Oct 10.2 21:03:08 10° NNW 21:05:00 17° N 21:05:00 17° N visible
31 Oct 10.0 17:35:54 10° WNW 17:40:15 19° NNW 17:44:39 10° NNE visible
31 Oct 9.9 19:25:38 10° NNW 19:29:21 16° N 19:30:29 15° NNE visible
31 Oct 10.3 21:12:27 10° NNW 21:13:59 16° NNW 21:13:59 16° NNW visible
